Time,TemperatureF,DewpointF,PressureIn,WindDirection,WindDirectionDegrees,WindSpeedMPH,WindSpeedGustMPH,Humidity,HourlyPrecipIn,Conditions,Clouds,dailyrainin,SolarRadiationWatts/m^2,SoftwareType,DateUTC
2013-05-14 00:05:00,47.4,41.2,29.92,NW,321,0.0,2.3,79,0.00,RA,,0.00,0.0,WeatherDisplay:10.37,2013-05-13 22:05:00,
2013-05-14 00:10:00,47.3,41.4,29.92,NW,321,0.0,0.0,80,0.00,RA,,0.00,0.0,WeatherDisplay:10.37,2013-05-13 22:10:00,
2013-05-14 00:15:00,47.2,41.3,29.92,NW,321,0.0,0.0,80,0.00,BKN,,0.00,0.0,WeatherDisplay:10.37,2013-05-13 22:15:00,
2013-05-14 00:20:00,47.0,41.1,29.92,NW,321,0.0,0.0,80,0.00,BKN,,0.00,0.0,WeatherDisplay:10.37,2013-05-13 22:20:00,
2013-05-14 00:25:00,47.0,41.5,29.91,NW,321,0.0,0.0,81,0.00,BKN,,0.00,0.0,WeatherDisplay:10.37,2013-05-13 22:25:00,
2013-05-14 00:30:00,46.9,41.4,29.91,NW,321,0.4,2.0,81,0.00,BKN,,0.00,0.0,WeatherDisplay:10.37,2013-05-13 22:30:00,
2013-05-14 00:35:00,46.8,41.3,29.91,NW,321,0.3,1.2,81,0.00,BKN,,0.00,0.0,WeatherDisplay:10.37,2013-05-13 22:35:00,
2013-05-14 00:40:00,46.7,41.5,29.91,NW,321,0.0,1.2,82,0.00,BKN,,0.00,0.0,WeatherDisplay:10.37,2013-05-13 22:40:00,
2013-05-14 00:45:00,46.6,41.4,29.91,NW,321,0.2,2.3,82,0.00,BKN,,0.00,0.0,WeatherDisplay:10.37,2013-05-13 22:45:00,
2013-05-14 00:50:00,46.6,41.4,29.91,NW,321,0.0,0.0,82,0.00,BKN,,0.00,0.0,WeatherDisplay:10.37,2013-05-13 22:50:00,
2013-05-14 00:55:00,46.5,41.3,29.91,NW,321,0.0,0.0,82,0.00,BKN,,0.00,0.0,WeatherDisplay:10.37,2013-05-13 22:55:00,
2013-05-14 01:00:00,46.5,41.6,29.91,NW,321,0.0,0.0,83,0.00,BKN,,0.00,0.0,WeatherDisplay:10.37,2013-05-13 23:00:00,
2013-05-14 01:05:00,46.4,41.5,29.91,NW,321,0.0,0.0,83,0.00,BKN,,0.00,0.0,WeatherDisplay:10.37,2013-05-13 23:05:00,
2013-05-14 01:10:00,46.2,41.3,29.91,NW,321,0.5,3.5,83,0.00,BKN,,0.00,0.0,WeatherDisplay:10.37,2013-05-13 23:10:00,
2013-05-14 01:15:00,46.1,41.2,29.91,NW,321,0.0,3.5,83,0.00,BKN,,0.00,0.0,WeatherDisplay:10.37,2013-05-13 23:15:00,
2013-05-14 01:20:00,46.1,41.5,29.91,NW,321,0.3,2.0,84,0.00,BKN,,0.00,0.0,WeatherDisplay:10.37,2013-05-13 23:20:00,
2013-05-14 01:25:00,46.0,41.4,29.91,NW,321,0.2,1.2,84,0.00,BKN,,0.00,0.0,WeatherDisplay:10.37,2013-05-13 23:25:00,
2013-05-14 01:30:00,46.0,41.4,29.91,NW,321,0.1,1.0,84,0.00,BKN,,0.00,0.0,WeatherDisplay:10.37,2013-05-13 23:30:00,
2013-05-14 01:35:00,46.0,41.7,29.91,NW,322,0.0,1.0,85,0.00,BKN,,0.00,0.0,WeatherDisplay:10.37,2013-05-13 23:35:00,
2013-05-14 01:40:00,46.0,41.7,29.90,NW,321,0.0,0.0,85,0.00,BKN,,0.00,0.0,WeatherDisplay:10.37,2013-05-13 23:40:00,
2013-05-14 01:45:00,46.0,41.7,29.91,NW,323,0.0,1.0,85,0.00,BKN,,0.00,0.0,WeatherDisplay:10.37,2013-05-13 23:45:00,
2013-05-14 01:50:00,45.9,41.9,29.90,NW,321,0.0,1.2,86,0.00,BKN,,0.00,0.0,WeatherDisplay:10.37,2013-05-13 23:50:00,
2013-05-14 01:55:00,46.0,42.0,29.90,NW,316,1.0,6.0,86,0.00,BKN,,0.00,0.0,WeatherDisplay:10.37,2013-05-13 23:55:00,
2013-05-14 02:00:00,46.2,42.2,29.90,WNW,299,0.8,3.5,86,0.00,BKN,,0.00,0.0,WeatherDisplay:10.37,2013-05-14 00:00:00,
2013-05-14 02:05:00,46.4,42.7,29.91,NW,306,0.0,5.0,87,0.00,BKN,,0.00,0.0,WeatherDisplay:10.37,2013-05-14 00:05:00,
2013-05-14 02:10:00,46.6,42.6,29.91,WNW,303,0.1,3.5,86,0.00,BKN,,0.00,0.0,WeatherDisplay:10.37,2013-05-14 00:10:00,
2013-05-14 02:15:00,46.8,42.8,29.90,NW,320,0.0,3.5,86,0.00,BKN,,0.00,0.0,WeatherDisplay:10.37,2013-05-14 00:15:00,
2013-05-14 02:20:00,47.1,43.1,29.90,North,5,1.1,3.5,86,0.00,BKN,,0.00,0.0,WeatherDisplay:10.37,2013-05-14 00:20:00,
2013-05-14 02:26:00,47.3,43.0,29.90,North,355,0.2,1.2,85,0.00,BKN,,0.00,0.0,WeatherDisplay:10.37,2013-05-14 00:26:00,
2013-05-14 02:31:00,47.5,43.2,29.90,NNW,336,0.8,3.0,85,0.00,BKN,,0.00,0.0,WeatherDisplay:10.37,2013-05-14 00:31:00,
2013-05-14 02:37:00,47.6,43.0,29.90,NNW,336,1.0,3.0,84,0.00,BKN,,0.00,0.0,WeatherDisplay:10.37,2013-05-14 00:37:00,
2013-05-14 02:42:00,47.7,43.1,29.90,NNW,339,0.3,3.5,84,0.00,BKN,,0.00,0.0,WeatherDisplay:10.37,2013-05-14 00:42:00,
2013-05-14 02:47:00,47.7,43.1,29.91,North,360,0.4,2.3,84,0.00,BKN,,0.00,0.0,WeatherDisplay:10.37,2013-05-14 00:47:00,
2013-05-14 02:53:00,47.6,43.0,29.90,NNW,339,0.0,3.5,84,0.00,BKN,,0.00,0.0,WeatherDisplay:10.37,2013-05-14 00:53:00,
2013-05-14 02:58:00,47.6,43.0,29.91,NNW,339,0.0,1.2,84,0.00,BKN,,0.00,0.0,WeatherDisplay:10.37,2013-05-14 00:58:00,
2013-05-14 03:03:00,47.5,42.9,29.90,NNW,339,0.0,1.2,84,0.00,BKN,,0.00,0.0,WeatherDisplay:10.37,2013-05-14 01:03:00,
2013-05-14 03:08:00,47.5,42.9,29.90,NNW,339,0.0,0.0,84,0.00,BKN,,0.00,0.0,WeatherDisplay:10.37,2013-05-14 01:08:00,
2013-05-14 03:13:00,47.4,42.8,29.90,NNW,339,0.1,1.0,84,0.00,BKN,,0.00,0.0,WeatherDisplay:10.37,2013-05-14 01:13:00,
2013-05-14 03:18:00,47.3,42.7,29.90,NNW,339,0.0,0.0,84,0.00,BKN,,0.00,0.0,WeatherDisplay:10.37,2013-05-14 01:18:00,
2013-05-14 03:23:00,47.2,42.6,29.90,NNW,339,0.0,0.0,84,0.00,BKN,,0.00,0.0,WeatherDisplay:10.37,2013-05-14 01:23:00,
2013-05-14 03:28:00,47.0,42.4,29.90,NNW,339,0.0,0.0,84,0.00,BKN,,0.00,0.0,WeatherDisplay:10.37,2013-05-14 01:28:00,
2013-05-14 03:33:00,46.8,42.2,29.90,NNW,339,0.0,0.0,84,0.00,BKN,,0.00,0.0,WeatherDisplay:10.37,2013-05-14 01:33:00,
2013-05-14 03:38:00,46.6,42.0,29.90,NNW,339,0.0,0.0,84,0.00,BKN,,0.00,0.0,WeatherDisplay:10.37,2013-05-14 01:38:00,
2013-05-14 03:43:00,46.4,41.8,29.90,NNW,339,0.0,0.0,84,0.00,BKN,,0.00,0.0,WeatherDisplay:10.37,2013-05-14 01:43:00,
2013-05-14 03:48:00,46.2,41.9,29.90,North,360,0.0,0.0,85,0.00,BKN,,0.00,0.0,WeatherDisplay:10.37,2013-05-14 01:48:00,
2013-05-14 03:53:00,45.9,41.6,29.90,North,360,0.2,1.0,85,0.00,BKN,,0.00,0.0,WeatherDisplay:10.37,2013-05-14 01:53:00,
2013-05-14 03:58:00,45.7,41.4,29.91,NNW,339,0.0,1.2,85,0.00,BKN,,0.00,0.0,WeatherDisplay:10.37,2013-05-14 01:58:00,
2013-05-14 04:03:00,45.5,41.6,29.91,NNW,339,0.0,0.0,86,0.00,BKN,,0.00,0.0,WeatherDisplay:10.37,2013-05-14 02:03:00,
2013-05-14 04:08:00,45.3,41.4,29.90,NNW,339,0.0,0.0,86,0.00,BKN,,0.00,0.0,WeatherDisplay:10.37,2013-05-14 02:08:00,
2013-05-14 04:13:00,45.1,41.2,29.90,NNW,339,0.0,1.2,86,0.00,BKN,,0.00,0.0,WeatherDisplay:10.37,2013-05-14 02:13:00,
2013-05-14 04:18:00,45.0,41.4,29.90,NNW,339,0.1,1.0,87,0.00,BKN,,0.00,0.0,WeatherDisplay:10.37,2013-05-14 02:18:00,
2013-05-14 04:23:00,45.0,41.4,29.90,NNW,339,0.0,0.0,87,0.00,BKN,,0.00,0.0,WeatherDisplay:10.37,2013-05-14 02:23:00,
2013-05-14 04:28:00,44.8,41.2,29.90,North,360,0.0,1.2,87,0.00,BKN,,0.00,0.0,WeatherDisplay:10.37,2013-05-14 02:28:00,
2013-05-14 04:33:00,44.8,41.2,29.90,NNW,339,0.0,0.0,87,0.00,BKN,,0.00,0.0,WeatherDisplay:10.37,2013-05-14 02:33:00,
2013-05-14 04:38:00,44.6,41.0,29.90,North,360,0.0,0.0,87,0.00,BKN,,0.00,0.0,WeatherDisplay:10.37,2013-05-14 02:38:00,
2013-05-14 04:43:00,44.5,41.2,29.89,NNW,339,0.0,0.0,88,0.00,BKN,,0.00,0.0,WeatherDisplay:10.37,2013-05-14 02:43:00,
2013-05-14 04:48:00,44.4,41.1,29.89,NNW,339,0.0,0.0,88,0.00,BKN,,0.00,0.0,WeatherDisplay:10.37,2013-05-14 02:48:00,
2013-05-14 04:53:00,44.4,41.1,29.90,NNW,339,0.0,0.0,88,0.00,BKN,,0.00,0.0,WeatherDisplay:10.37,2013-05-14 02:53:00,
2013-05-14 04:58:00,44.3,41.0,29.90,NNW,339,0.0,0.0,88,0.00,BKN,,0.00,0.0,WeatherDisplay:10.37,2013-05-14 02:58:00,
2013-05-14 05:03:00,44.1,40.8,29.90,North,360,0.0,0.0,88,0.00,BKN,,0.00,0.0,WeatherDisplay:10.37,2013-05-14 03:03:00,
2013-05-14 05:08:00,44.1,40.8,29.90,NNW,339,0.0,0.0,88,0.00,BKN,,0.00,0.0,WeatherDisplay:10.37,2013-05-14 03:08:00,
2013-05-14 05:13:00,44.1,41.1,29.90,NNW,339,0.0,0.0,89,0.00,BKN,,0.00,0.0,WeatherDisplay:10.37,2013-05-14 03:13:00,
2013-05-14 05:18:00,44.1,41.1,29.90,NNW,339,0.1,1.2,89,0.00,BKN,,0.00,9.0,WeatherDisplay:10.37,2013-05-14 03:18:00,
2013-05-14 05:23:00,44.1,41.1,29.90,NNW,339,0.0,0.0,89,0.00,BKN,,0.00,14.0,WeatherDisplay:10.37,2013-05-14 03:23:00,
2013-05-14 05:28:00,44.0,41.0,29.90,NNW,339,0.0,0.0,89,0.00,BKN,,0.00,18.0,WeatherDisplay:10.37,2013-05-14 03:28:00,
2013-05-14 05:33:00,44.0,41.0,29.90,NNW,339,0.0,0.0,89,0.00,BKN,,0.00,23.0,WeatherDisplay:10.37,2013-05-14 03:33:00,
2013-05-14 05:38:00,43.9,40.9,29.90,NNW,339,0.0,0.0,89,0.00,BKN,,0.00,30.0,WeatherDisplay:10.37,2013-05-14 03:38:00,
2013-05-14 05:43:00,43.9,40.9,29.90,NNW,339,0.0,0.0,89,0.00,BKN,,0.00,33.0,WeatherDisplay:10.37,2013-05-14 03:43:00,
2013-05-14 05:48:00,43.9,41.2,29.91,NNW,339,0.0,0.0,90,0.00,BKN,,0.00,33.0,WeatherDisplay:10.37,2013-05-14 03:48:00,
2013-05-14 05:53:00,44.0,41.3,29.90,NNW,339,0.0,0.0,90,0.00,BKN,,0.00,40.0,WeatherDisplay:10.37,2013-05-14 03:53:00,
2013-05-14 05:58:00,44.1,41.4,29.90,NNW,339,0.0,0.0,90,0.00,BKN,,0.00,40.0,WeatherDisplay:10.37,2013-05-14 03:58:00,
2013-05-14 06:01:00,44.1,41.4,29.90,NNW,339,0.0,0.0,90,0.00,BKN,,0.00,32.0,WeatherDisplay:10.37,2013-05-14 04:01:00,
2013-05-14 06:02:00,44.1,41.4,29.90,NNW,339,0.0,0.0,90,0.00,BKN,,0.00,30.0,WeatherDisplay:10.37,2013-05-14 04:02:00,
2013-05-14 06:06:00,44.2,41.7,29.90,NNW,339,0.0,0.0,91,0.00,BKN,,0.00,37.0,WeatherDisplay:10.37,2013-05-14 04:06:00,
2013-05-14 06:09:00,44.2,41.7,29.90,NNW,339,0.0,0.0,91,0.00,BKN,,0.00,44.0,WeatherDisplay:10.37,2013-05-14 04:09:00,
2013-05-14 06:14:00,44.3,41.8,29.91,NNW,339,0.1,1.2,91,0.00,SCT,,0.00,79.0,WeatherDisplay:10.37,2013-05-14 04:14:00,
2013-05-14 06:15:00,44.3,41.8,29.90,NNW,341,0.0,1.0,91,0.00,SCT,,0.00,90.0,WeatherDisplay:10.37,2013-05-14 04:15:00,
2013-05-14 06:20:00,44.7,42.2,29.91,NNW,339,0.0,0.0,91,0.00,SCT,,0.00,90.0,WeatherDisplay:10.37,2013-05-14 04:20:00,
2013-05-14 06:25:00,45.1,42.9,29.91,NNW,339,0.0,0.0,92,0.00,SCT,,0.00,72.0,WeatherDisplay:10.37,2013-05-14 04:25:00,
2013-05-14 06:30:00,45.5,43.3,29.91,NNW,339,0.0,1.2,92,0.00,FEW,,0.00,139.0,WeatherDisplay:10.37,2013-05-14 04:30:00,
2013-05-14 06:35:00,46.0,43.8,29.91,NNW,339,0.0,1.2,92,0.00,FEW,,0.00,134.0,WeatherDisplay:10.37,2013-05-14 04:35:00,
2013-05-14 06:40:00,46.2,43.7,29.91,NNW,339,0.0,0.0,91,0.00,FEW,,0.00,148.0,WeatherDisplay:10.37,2013-05-14 04:40:00,
2013-05-14 06:46:00,46.8,44.0,29.91,NNW,339,0.0,0.0,90,0.00,FEW,,0.00,139.0,WeatherDisplay:10.37,2013-05-14 04:46:00,
2013-05-14 06:51:00,47.4,44.6,29.91,NNW,339,0.8,3.5,90,0.00,FEW,,0.00,134.0,WeatherDisplay:10.37,2013-05-14 04:51:00,
2013-05-14 06:56:00,48.0,44.9,29.91,NNW,339,1.2,4.0,89,0.00,SCT,,0.00,134.0,WeatherDisplay:10.37,2013-05-14 04:56:00,
2013-05-14 07:01:00,48.8,45.4,29.91,NNW,339,0.1,1.2,88,0.00,SCT,,0.00,151.0,WeatherDisplay:10.37,2013-05-14 05:01:00,
2013-05-14 07:06:00,49.2,45.2,29.91,NNW,339,1.6,3.5,86,0.00,FEW,,0.00,179.0,WeatherDisplay:10.37,2013-05-14 05:06:00,
2013-05-14 07:11:00,49.7,45.4,29.91,NNW,335,0.8,3.5,85,0.00,SCT,,0.00,149.0,WeatherDisplay:10.37,2013-05-14 05:11:00,
2013-05-14 07:16:00,50.1,45.5,29.91,NW,326,0.1,3.5,84,0.00,SCT,,0.00,155.0,WeatherDisplay:10.37,2013-05-14 05:16:00,
2013-05-14 07:21:00,50.4,45.7,29.91,NW,321,0.3,3.5,84,0.00,SCT,,0.00,111.0,WeatherDisplay:10.37,2013-05-14 05:21:00,
2013-05-14 07:26:00,50.5,45.5,29.91,West,277,2.6,5.0,83,0.00,BKN,,0.00,93.0,WeatherDisplay:10.37,2013-05-14 05:26:00,
2013-05-14 07:31:00,50.6,45.3,29.91,NW,321,1.9,4.0,82,0.00,BKN,,0.00,185.0,WeatherDisplay:10.37,2013-05-14 05:31:00,
2013-05-14 07:36:00,50.8,45.5,29.91,NNW,335,1.4,3.5,82,0.00,SCT,,0.00,216.0,WeatherDisplay:10.37,2013-05-14 05:36:00,
2013-05-14 07:41:00,51.3,46.0,29.91,West,269,0.8,4.6,82,0.00,SCT,,0.00,176.0,WeatherDisplay:10.37,2013-05-14 05:41:00,
2013-05-14 07:46:00,51.5,45.9,29.91,NNW,338,1.2,4.6,81,0.00,SCT,,0.00,230.0,WeatherDisplay:10.37,2013-05-14 05:46:00,
2013-05-14 07:51:00,51.6,45.6,29.91,NNW,343,1.8,4.6,80,0.00,SCT,,0.00,100.0,WeatherDisplay:10.37,2013-05-14 05:51:00,
2013-05-14 07:56:00,51.6,45.6,29.91,North,5,1.9,5.8,80,0.00,BKN,,0.00,88.0,WeatherDisplay:10.37,2013-05-14 05:56:00,
2013-05-14 08:01:00,51.6,45.6,29.91,NW,319,4.5,8.1,80,0.00,BKN,,0.00,123.0,WeatherDisplay:10.37,2013-05-14 06:01:00,
2013-05-14 08:06:00,51.6,45.6,29.92,NNW,342,3.0,5.8,80,0.00,BKN,,0.00,169.0,WeatherDisplay:10.37,2013-05-14 06:06:00,
2013-05-14 08:11:00,51.8,45.8,29.92,NW,318,3.1,6.0,80,0.00,BKN,,0.00,169.0,WeatherDisplay:10.37,2013-05-14 06:11:00,
2013-05-14 08:16:00,52.0,45.7,29.92,North,360,1.9,5.0,79,0.00,BKN,,0.00,162.0,WeatherDisplay:10.37,2013-05-14 06:16:00,
2013-05-14 08:21:00,52.3,46.0,29.92,NW,304,0.9,3.5,79,0.00,BKN,,0.00,163.0,WeatherDisplay:10.37,2013-05-14 06:21:00,
2013-05-14 08:26:00,52.5,45.8,29.92,WNW,291,3.1,8.1,78,0.00,BKN,,0.00,195.0,WeatherDisplay:10.37,2013-05-14 06:26:00,
2013-05-14 08:31:00,52.7,45.7,29.92,WNW,301,3.0,6.9,77,0.00,SCT,,0.00,230.0,WeatherDisplay:10.37,2013-05-14 06:31:00,
2013-05-14 08:36:00,53.0,46.0,29.92,NNW,340,4.6,8.1,77,0.00,SCT,,0.00,241.0,WeatherDisplay:10.37,2013-05-14 06:36:00,
2013-05-14 08:41:00,53.2,45.8,29.92,NNE,20,5.8,9.2,76,0.00,SCT,,0.00,206.0,WeatherDisplay:10.37,2013-05-14 06:41:00,
2013-05-14 08:46:00,53.3,45.9,29.92,WNW,295,0.4,3.5,76,0.00,SCT,,0.00,220.0,WeatherDisplay:10.37,2013-05-14 06:46:00,
2013-05-14 08:51:00,53.6,46.2,29.92,NNW,339,3.1,9.2,76,0.00,BKN,,0.00,223.0,WeatherDisplay:10.37,2013-05-14 06:51:00,
2013-05-14 08:56:00,53.7,46.0,29.92,NNW,346,2.6,4.0,75,0.00,BKN,,0.00,211.0,WeatherDisplay:10.37,2013-05-14 06:56:00,
2013-05-14 09:01:00,54.0,46.3,29.92,WNW,294,2.5,6.0,75,0.00,BKN,,0.00,241.0,WeatherDisplay:10.37,2013-05-14 07:01:00,
2013-05-14 09:06:00,54.3,46.2,29.92,North,355,1.7,4.0,74,0.00,SCT,,0.00,309.0,WeatherDisplay:10.37,2013-05-14 07:06:00,
2013-05-14 09:11:00,54.7,46.2,29.92,West,279,3.8,11.5,73,0.00,SCT,,0.00,246.0,WeatherDisplay:10.37,2013-05-14 07:11:00,
2013-05-14 09:16:00,54.9,46.4,29.92,NW,311,3.7,8.1,73,0.00,SCT,,0.00,223.0,WeatherDisplay:10.37,2013-05-14 07:16:00,
2013-05-14 09:21:00,54.9,46.4,29.92,NW,325,3.9,6.0,73,0.00,BKN,,0.00,183.0,WeatherDisplay:10.37,2013-05-14 07:21:00,
2013-05-14 09:26:00,54.8,45.9,29.92,NW,319,4.2,8.1,72,0.00,BKN,,0.00,195.0,WeatherDisplay:10.37,2013-05-14 07:26:00,
2013-05-14 09:31:00,54.7,45.8,29.92,ENE,58,4.5,9.2,72,0.00,BKN,,0.00,213.0,WeatherDisplay:10.37,2013-05-14 07:31:00,
2013-05-14 09:36:00,54.5,45.7,29.92,NNW,332,4.2,11.5,72,0.00,BKN,,0.00,190.0,WeatherDisplay:10.37,2013-05-14 07:36:00,
2013-05-14 09:41:00,54.4,45.6,29.92,NW,320,2.3,5.8,72,0.00,BKN,,0.00,176.0,WeatherDisplay:10.37,2013-05-14 07:41:00,
2013-05-14 09:46:00,54.3,45.8,29.92,NNE,30,3.3,5.0,73,0.00,BKN,,0.00,155.0,WeatherDisplay:10.37,2013-05-14 07:46:00,
2013-05-14 09:51:00,54.3,45.8,29.92,North,355,4.4,9.2,73,0.00,BKN,,0.00,98.0,WeatherDisplay:10.37,2013-05-14 07:51:00,
2013-05-14 09:56:00,54.2,45.7,29.93,NE,45,3.6,7.0,73,0.00,BKN,,0.00,95.0,WeatherDisplay:10.37,2013-05-14 07:56:00,
2013-05-14 10:02:00,54.2,46.1,29.93,NNW,328,1.5,4.6,74,0.00,BKN,,0.00,142.0,WeatherDisplay:10.37,2013-05-14 08:02:00,
2013-05-14 10:07:00,54.1,46.0,29.93,NNW,346,1.9,5.8,74,0.00,BKN,,0.00,123.0,WeatherDisplay:10.37,2013-05-14 08:07:00,
2013-05-14 10:12:00,54.0,46.3,29.93,NNE,31,3.4,5.0,75,0.00,BKN,,0.00,137.0,WeatherDisplay:10.37,2013-05-14 08:12:00,
2013-05-14 10:17:00,53.9,46.2,29.93,NW,326,1.6,7.0,75,0.00,BKN,,0.00,165.0,WeatherDisplay:10.37,2013-05-14 08:17:00,
2013-05-14 10:22:00,53.9,46.5,29.93,North,5,1.2,5.8,76,0.00,BKN,,0.00,214.0,WeatherDisplay:10.37,2013-05-14 08:22:00,
2013-05-14 10:27:00,53.9,46.9,29.93,North,5,0.0,2.3,77,0.00,BKN,,0.00,246.0,WeatherDisplay:10.37,2013-05-14 08:27:00,
2013-05-14 10:32:00,53.9,47.2,29.93,NW,325,0.1,3.5,78,0.00,BKN,,0.00,248.0,WeatherDisplay:10.37,2013-05-14 08:32:00,
2013-05-14 10:37:00,54.1,47.4,29.93,North,350,2.0,4.6,78,0.00,BKN,,0.00,257.0,WeatherDisplay:10.37,2013-05-14 08:37:00,
2013-05-14 10:42:00,54.2,47.1,29.93,NNE,13,2.2,4.6,77,0.00,BKN,,0.00,295.0,WeatherDisplay:10.37,2013-05-14 08:42:00,
2013-05-14 10:47:00,54.5,47.4,29.94,North,9,0.0,3.5,77,0.00,BKN,,0.00,265.0,WeatherDisplay:10.37,2013-05-14 08:47:00,
2013-05-14 10:52:00,54.9,47.5,29.94,NW,319,2.9,6.0,76,0.00,BKN,,0.00,348.0,WeatherDisplay:10.37,2013-05-14 08:52:00,
2013-05-14 10:57:00,55.4,47.6,29.93,NW,326,1.8,5.0,75,0.00,BKN,,0.00,285.0,WeatherDisplay:10.37,2013-05-14 08:57:00,
2013-05-14 11:02:00,55.7,47.5,29.93,North,360,2.7,5.0,74,0.00,BKN,,0.00,299.0,WeatherDisplay:10.37,2013-05-14 09:02:00,
2013-05-14 11:07:00,56.0,47.1,29.93,WNW,301,2.4,5.0,72,0.00,BKN,,0.00,350.0,WeatherDisplay:10.37,2013-05-14 09:07:00,
2013-05-14 11:12:00,56.4,47.5,29.93,NW,304,2.2,5.0,72,0.00,BKN,,0.00,332.0,WeatherDisplay:10.37,2013-05-14 09:12:00,
2013-05-14 11:17:00,56.8,46.7,29.94,West,271,2.5,5.8,69,0.00,BKN,,0.00,325.0,WeatherDisplay:10.37,2013-05-14 09:17:00,
2013-05-14 11:22:00,56.8,46.7,29.94,WNW,296,2.3,4.6,69,0.00,BKN,,0.00,295.0,WeatherDisplay:10.37,2013-05-14 09:22:00,
2013-05-14 11:27:00,56.9,46.8,29.94,NW,314,2.4,5.0,69,0.00,BKN,,0.00,179.0,WeatherDisplay:10.37,2013-05-14 09:27:00,
2013-05-14 11:32:00,56.7,46.6,29.94,NW,317,1.8,5.8,69,0.00,BKN,,0.00,139.0,WeatherDisplay:10.37,2013-05-14 09:32:00,
2013-05-14 11:37:00,56.6,46.9,29.94,NW,306,2.2,5.0,70,0.00,BKN,,0.00,148.0,WeatherDisplay:10.37,2013-05-14 09:37:00,
2013-05-14 11:42:00,56.6,46.9,29.93,North,355,0.4,3.5,70,0.00,BKN,,0.00,183.0,WeatherDisplay:10.37,2013-05-14 09:42:00,
2013-05-14 11:47:00,56.6,46.9,29.93,WNW,296,2.2,5.8,70,0.00,BKN,,0.00,232.0,WeatherDisplay:10.37,2013-05-14 09:47:00,
2013-05-14 11:52:00,56.7,46.6,29.93,NNW,342,1.3,3.5,69,0.00,BKN,,0.00,313.0,WeatherDisplay:10.37,2013-05-14 09:52:00,
2013-05-14 11:57:00,57.0,46.9,29.93,North,10,2.4,4.0,69,0.00,BKN,,0.00,332.0,WeatherDisplay:10.37,2013-05-14 09:57:00,
2013-05-14 12:02:00,57.4,46.9,29.93,NNE,17,1.2,6.0,68,0.00,BKN,,0.00,327.0,WeatherDisplay:10.37,2013-05-14 10:02:00,
2013-05-14 12:07:00,57.8,46.5,29.93,NNW,330,3.8,6.9,66,0.00,BKN,,0.00,376.0,WeatherDisplay:10.37,2013-05-14 10:07:00,
2013-05-14 12:12:00,57.9,46.6,29.93,NNE,23,0.7,4.6,66,0.00,BKN,,0.00,436.0,WeatherDisplay:10.37,2013-05-14 10:12:00,
2013-05-14 12:17:00,58.2,47.3,29.93,North,360,0.7,3.5,67,0.00,SCT,,0.00,397.0,WeatherDisplay:10.37,2013-05-14 10:17:00,
2013-05-14 12:23:00,58.8,47.1,29.92,NW,320,2.3,10.4,65,0.00,BKN,,0.00,322.0,WeatherDisplay:10.37,2013-05-14 10:23:00,
2013-05-14 12:28:00,58.9,47.6,29.92,NNW,340,2.9,8.1,66,0.00,BKN,,0.00,260.0,WeatherDisplay:10.37,2013-05-14 10:28:00,
2013-05-14 12:33:00,59.0,47.2,29.92,NNE,28,1.6,4.6,65,0.00,BKN,,0.00,221.0,WeatherDisplay:10.37,2013-05-14 10:33:00,
2013-05-14 12:38:00,59.1,47.3,29.92,NW,307,3.1,5.8,65,0.00,BKN,,0.00,269.0,WeatherDisplay:10.37,2013-05-14 10:38:00,
2013-05-14 12:43:00,59.3,47.1,29.93,NNE,32,2.6,4.6,64,0.00,BKN,,0.00,346.0,WeatherDisplay:10.37,2013-05-14 10:43:00,
2013-05-14 12:48:00,59.5,47.3,29.93,NNW,343,3.8,6.0,64,0.00,BKN,,0.00,362.0,WeatherDisplay:10.37,2013-05-14 10:48:00,
2013-05-14 12:53:00,59.6,47.4,29.92,NNW,335,0.8,3.5,64,0.00,BKN,,0.00,413.0,WeatherDisplay:10.37,2013-05-14 10:53:00,
2013-05-14 12:58:00,59.8,46.7,29.92,North,11,3.4,8.1,62,0.00,SCT,,0.00,461.0,WeatherDisplay:10.37,2013-05-14 10:58:00,
2013-05-14 13:03:00,59.9,47.3,29.93,NNW,335,4.2,9.2,63,0.00,SCT,,0.00,420.0,WeatherDisplay:10.37,2013-05-14 11:03:00,
2013-05-14 13:08:00,60.0,47.4,29.93,NNW,330,4.5,10.4,63,0.00,SCT,,0.00,415.0,WeatherDisplay:10.37,2013-05-14 11:08:00,
2013-05-14 13:13:00,60.3,47.6,29.92,North,9,4.6,8.1,63,0.00,SCT,,0.00,383.0,WeatherDisplay:10.37,2013-05-14 11:13:00,
2013-05-14 13:18:00,60.5,48.3,29.92,NE,35,1.9,5.0,64,0.00,SCT,,0.00,424.0,WeatherDisplay:10.37,2013-05-14 11:18:00,
2013-05-14 13:23:00,60.6,47.5,29.92,NNW,345,4.3,6.9,62,0.00,SCT,,0.00,424.0,WeatherDisplay:10.37,2013-05-14 11:23:00,
2013-05-14 13:28:00,60.5,47.4,29.92,East,92,5.5,7.0,62,0.00,SCT,,0.00,791.0,WeatherDisplay:10.37,2013-05-14 11:28:00,
2013-05-14 13:33:00,60.9,47.8,29.92,ENE,58,5.1,8.1,62,0.00,CLR,,0.00,958.0,WeatherDisplay:10.37,2013-05-14 11:33:00,
2013-05-14 13:38:00,61.2,48.1,29.92,ENE,67,2.5,4.6,62,0.00,CLR,,0.00,218.0,WeatherDisplay:10.37,2013-05-14 11:38:00,
2013-05-14 13:43:00,61.5,48.4,29.92,NE,55,3.3,9.2,62,0.00,SCT,,0.00,246.0,WeatherDisplay:10.37,2013-05-14 11:43:00,
2013-05-14 13:48:00,61.5,47.9,29.92,NNW,346,1.9,6.9,61,0.00,BKN,,0.00,239.0,WeatherDisplay:10.37,2013-05-14 11:48:00,
2013-05-14 13:53:00,61.5,48.4,29.92,NNE,24,4.5,8.1,62,0.00,SCT,,0.00,974.0,WeatherDisplay:10.37,2013-05-14 11:53:00,
2013-05-14 13:58:00,62.1,48.5,29.92,NNW,340,2.9,6.9,61,0.00,CLR,,0.00,1072.0,WeatherDisplay:10.37,2013-05-14 11:58:00,
2013-05-14 14:03:00,62.7,47.7,29.92,ENE,57,3.6,6.9,58,0.00,CLR,,0.00,213.0,WeatherDisplay:10.37,2013-05-14 12:03:00,
2013-05-14 14:08:00,62.2,47.2,29.92,NE,40,4.0,7.0,58,0.00,SCT,,0.00,197.0,WeatherDisplay:10.37,2013-05-14 12:08:00,
2013-05-14 14:13:00,61.6,47.1,29.92,NNE,13,3.0,6.9,59,0.00,BKN,,0.00,288.0,WeatherDisplay:10.37,2013-05-14 12:13:00,
2013-05-14 14:18:00,61.3,47.7,29.92,North,360,4.7,8.1,61,0.00,BKN,,0.00,297.0,WeatherDisplay:10.37,2013-05-14 12:18:00,
2013-05-14 14:23:00,61.3,47.7,29.91,NNW,345,4.3,7.0,61,0.00,BKN,,0.00,404.0,WeatherDisplay:10.37,2013-05-14 12:23:00,
2013-05-14 14:28:00,61.4,47.8,29.91,NNE,24,3.1,6.9,61,0.00,SCT,,0.00,334.0,WeatherDisplay:10.37,2013-05-14 12:28:00,
2013-05-14 14:33:00,61.6,47.6,29.91,NW,326,4.1,8.1,60,0.00,SCT,,0.00,891.0,WeatherDisplay:10.37,2013-05-14 12:33:00,
2013-05-14 14:38:00,62.3,47.8,29.91,NW,321,4.6,8.1,59,0.00,FEW,,0.00,353.0,WeatherDisplay:10.37,2013-05-14 12:38:00,
2013-05-14 14:43:00,62.4,47.9,29.91,NNW,348,4.1,6.9,59,0.00,SCT,,0.00,418.0,WeatherDisplay:10.37,2013-05-14 12:43:00,
2013-05-14 14:48:00,62.3,48.2,29.91,NNE,13,5.5,9.2,60,0.00,SCT,,0.00,320.0,WeatherDisplay:10.37,2013-05-14 12:48:00,
2013-05-14 14:53:00,62.0,48.0,29.91,North,9,5.2,9.2,60,0.00,SCT,,0.00,403.0,WeatherDisplay:10.37,2013-05-14 12:53:00,
2013-05-14 14:58:00,62.1,48.5,29.91,NE,55,4.6,10.4,61,0.00,SCT,,0.00,279.0,WeatherDisplay:10.37,2013-05-14 12:58:00,
2013-05-14 15:03:00,61.9,48.3,29.90,NNE,29,4.5,11.5,61,0.00,SCT,,0.00,378.0,WeatherDisplay:10.37,2013-05-14 13:03:00,
2013-05-14 15:08:00,62.2,49.0,29.90,NE,39,4.3,9.2,62,0.00,SCT,,0.00,506.0,WeatherDisplay:10.37,2013-05-14 13:08:00,
2013-05-14 15:13:00,62.4,48.3,29.91,NE,38,4.2,8.1,60,0.00,FEW,,0.00,283.0,WeatherDisplay:10.37,2013-05-14 13:13:00,
2013-05-14 15:18:00,62.2,48.6,29.91,East,94,3.3,8.1,61,0.00,SCT,,0.00,127.0,WeatherDisplay:10.37,2013-05-14 13:18:00,
2013-05-14 15:23:00,61.9,48.3,29.91,NE,44,2.8,9.2,61,0.00,BKN,,0.00,123.0,WeatherDisplay:10.37,2013-05-14 13:23:00,
2013-05-14 15:28:00,61.5,48.4,29.91,NE,46,2.9,5.8,62,0.00,BKN,,0.00,79.0,WeatherDisplay:10.37,2013-05-14 13:28:00,
2013-05-14 15:33:00,61.2,48.1,29.91,NNE,16,3.2,9.2,62,0.00,BKN,,0.00,105.0,WeatherDisplay:10.37,2013-05-14 13:33:00,
2013-05-14 15:38:00,60.8,47.7,29.91,NE,54,4.9,11.5,62,0.00,BKN,,0.00,109.0,WeatherDisplay:10.37,2013-05-14 13:38:00,
2013-05-14 15:43:00,60.5,47.8,29.91,North,11,0.8,3.5,63,0.00,BKN,,0.00,100.0,WeatherDisplay:10.37,2013-05-14 13:43:00,
2013-05-14 15:48:00,60.4,48.2,29.91,NE,55,3.9,7.0,64,0.00,BKN,,0.00,128.0,WeatherDisplay:10.37,2013-05-14 13:48:00,
2013-05-14 15:53:00,60.2,48.4,29.91,ENE,68,1.4,3.5,65,0.00,BKN,,0.00,160.0,WeatherDisplay:10.37,2013-05-14 13:53:00,
2013-05-14 15:58:00,60.2,48.4,29.91,East,87,2.1,4.0,65,0.00,BKN,,0.00,181.0,WeatherDisplay:10.37,2013-05-14 13:58:00,
2013-05-14 16:03:00,60.2,48.4,29.91,ENE,57,2.1,4.0,65,0.00,BKN,,0.00,213.0,WeatherDisplay:10.37,2013-05-14 14:03:00,
2013-05-14 16:08:00,60.4,47.7,29.91,North,10,3.8,5.0,63,0.00,BKN,,0.00,225.0,WeatherDisplay:10.37,2013-05-14 14:08:00,
2013-05-14 16:13:00,60.6,47.9,29.90,North,5,1.0,6.0,63,0.00,BKN,,0.00,246.0,WeatherDisplay:10.37,2013-05-14 14:13:00,
2013-05-14 16:18:00,60.7,48.0,29.90,NE,55,1.9,3.5,63,0.00,SCT,,0.00,283.0,WeatherDisplay:10.37,2013-05-14 14:18:00,
2013-05-14 16:23:00,61.0,48.3,29.91,North,355,2.2,4.6,63,0.00,SCT,,0.00,315.0,WeatherDisplay:10.37,2013-05-14 14:23:00,
2013-05-14 16:28:00,61.4,48.7,29.90,ENE,62,1.6,3.5,63,0.00,SCT,,0.00,527.0,WeatherDisplay:10.37,2013-05-14 14:28:00,
2013-05-14 16:33:00,62.1,48.5,29.90,NNE,22,2.3,6.0,61,0.00,CLR,,0.00,710.0,WeatherDisplay:10.37,2013-05-14 14:33:00,
2013-05-14 16:38:00,62.7,49.1,29.90,North,355,2.4,6.9,61,0.00,CLR,,0.00,239.0,WeatherDisplay:10.37,2013-05-14 14:38:00,
2013-05-14 16:43:00,62.8,48.3,29.90,NNE,17,1.9,6.9,59,0.00,FEW,,0.00,223.0,WeatherDisplay:10.37,2013-05-14 14:43:00,
2013-05-14 16:48:00,62.6,48.5,29.90,ENE,76,1.7,6.9,60,0.00,SCT,,0.00,246.0,WeatherDisplay:10.37,2013-05-14 14:48:00,
2013-05-14 16:53:00,62.3,48.7,29.90,ENE,67,3.8,7.0,61,0.00,SCT,,0.00,197.0,WeatherDisplay:10.37,2013-05-14 14:53:00,
2013-05-14 16:58:00,62.1,48.9,29.90,East,94,3.3,8.0,62,0.00,SCT,,0.00,207.0,WeatherDisplay:10.37,2013-05-14 14:58:00,
2013-05-14 17:03:00,62.2,49.0,29.89,NE,53,2.8,6.9,62,0.00,SCT,,0.00,213.0,WeatherDisplay:10.37,2013-05-14 15:03:00,
2013-05-14 17:08:00,62.3,48.7,29.89,NNE,25,0.3,3.5,61,0.00,FEW,,0.00,244.0,WeatherDisplay:10.37,2013-05-14 15:08:00,
2013-05-14 17:13:00,62.3,48.7,29.89,ENE,57,3.3,5.0,61,0.00,SCT,,0.00,223.0,WeatherDisplay:10.37,2013-05-14 15:13:00,
2013-05-14 17:18:00,62.4,48.8,29.89,ENE,78,3.0,4.6,61,0.00,SCT,,0.00,281.0,WeatherDisplay:10.37,2013-05-14 15:18:00,
2013-05-14 17:23:00,62.5,48.9,29.89,North,11,2.7,7.0,61,0.00,FEW,,0.00,387.0,WeatherDisplay:10.37,2013-05-14 15:23:00,
2013-05-14 17:28:00,62.6,49.0,29.89,NE,42,2.0,4.6,61,0.00,CLR,,0.00,341.0,WeatherDisplay:10.37,2013-05-14 15:28:00,
2013-05-14 17:33:00,62.9,49.7,29.89,NNE,30,2.3,5.0,62,0.00,CLR,,0.00,478.0,WeatherDisplay:10.37,2013-05-14 15:33:00,
2013-05-14 17:38:00,63.4,49.3,29.89,ENE,65,2.6,4.0,60,0.00,CLR,,0.00,475.0,WeatherDisplay:10.37,2013-05-14 15:38:00,
2013-05-14 17:43:00,64.0,49.8,29.89,ESE,107,0.6,3.0,60,0.00,CLR,,0.00,345.0,WeatherDisplay:10.37,2013-05-14 15:43:00,
2013-05-14 17:48:00,64.1,49.0,29.89,North,360,0.8,2.3,58,0.00,CLR,,0.00,176.0,WeatherDisplay:10.37,2013-05-14 15:48:00,
2013-05-14 17:53:00,64.0,48.9,29.89,North,355,2.6,6.9,58,0.00,FEW,,0.00,114.0,WeatherDisplay:10.37,2013-05-14 15:53:00,
2013-05-14 17:58:00,63.7,49.1,29.89,North,5,0.5,3.5,59,0.00,SCT,,0.00,98.0,WeatherDisplay:10.37,2013-05-14 15:58:00,
2013-05-14 18:03:00,63.5,48.9,29.89,NE,38,1.8,3.5,59,0.00,BKN,,0.00,102.0,WeatherDisplay:10.37,2013-05-14 16:03:00,
2013-05-14 18:08:00,63.2,49.1,29.89,East,83,0.8,4.6,60,0.00,BKN,,0.00,93.0,WeatherDisplay:10.37,2013-05-14 16:08:00,
2013-05-14 18:13:00,63.0,48.9,29.89,ENE,65,2.4,6.0,60,0.00,BKN,,0.00,90.0,WeatherDisplay:10.37,2013-05-14 16:13:00,
2013-05-14 18:18:00,62.7,49.1,29.89,ENE,58,2.8,4.6,61,0.00,BKN,,0.00,83.0,WeatherDisplay:10.37,2013-05-14 16:18:00,
2013-05-14 18:23:00,62.6,49.0,29.89,NE,40,1.9,3.5,61,0.00,BKN,,0.00,70.0,WeatherDisplay:10.37,2013-05-14 16:23:00,
2013-05-14 18:28:00,62.5,49.3,29.89,NE,55,2.1,6.9,62,0.00,BKN,,0.00,62.0,WeatherDisplay:10.37,2013-05-14 16:28:00,
2013-05-14 18:33:00,62.3,49.5,29.89,ESE,115,1.1,6.9,63,0.00,BKN,,0.00,53.0,WeatherDisplay:10.37,2013-05-14 16:33:00,
2013-05-14 18:38:00,62.1,49.4,29.89,SE,127,2.5,6.0,63,0.00,BKN,,0.00,44.0,WeatherDisplay:10.37,2013-05-14 16:38:00,
2013-05-14 18:43:00,61.9,49.6,29.89,ESE,113,1.0,3.5,64,0.00,BKN,,0.00,37.0,WeatherDisplay:10.37,2013-05-14 16:43:00,
2013-05-14 18:48:00,61.7,49.8,29.89,ESE,107,1.5,4.0,65,0.00,BKN,,0.00,32.0,WeatherDisplay:10.37,2013-05-14 16:48:00,
2013-05-14 18:53:00,61.5,49.6,29.90,NE,51,0.1,1.2,65,0.00,BKN,,0.00,30.0,WeatherDisplay:10.37,2013-05-14 16:53:00,
2013-05-14 18:58:00,61.3,49.8,29.89,East,86,0.9,2.3,66,0.00,BKN,,0.00,33.0,WeatherDisplay:10.37,2013-05-14 16:58:00,
2013-05-14 19:03:00,61.2,50.2,29.89,East,85,2.5,6.0,67,0.00,BKN,,0.00,47.0,WeatherDisplay:10.37,2013-05-14 17:03:00,
2013-05-14 19:08:00,61.0,50.0,29.89,East,93,2.0,6.9,67,0.00,BKN,,0.00,60.0,WeatherDisplay:10.37,2013-05-14 17:08:00,
2013-05-14 19:13:00,60.8,49.8,29.89,ENE,71,0.8,5.8,67,0.00,SCT,,0.00,47.0,WeatherDisplay:10.37,2013-05-14 17:13:00,
2013-05-14 19:18:00,60.6,49.6,29.89,East,90,0.1,1.2,67,0.00,SCT,,0.00,35.0,WeatherDisplay:10.37,2013-05-14 17:18:00,
2013-05-14 19:23:00,60.6,49.6,29.90,ENE,74,0.9,3.5,67,0.00,SCT,,0.00,28.0,WeatherDisplay:10.37,2013-05-14 17:23:00,
2013-05-14 19:28:00,60.5,49.9,29.89,East,80,1.1,2.3,68,0.00,SCT,,0.00,39.0,WeatherDisplay:10.37,2013-05-14 17:28:00,
2013-05-14 19:33:00,60.4,49.8,29.89,East,80,0.0,2.3,68,0.00,SCT,,0.00,26.0,WeatherDisplay:10.37,2013-05-14 17:33:00,
2013-05-14 19:38:00,60.3,49.7,29.89,East,80,0.8,2.3,68,0.00,SCT,,0.00,23.0,WeatherDisplay:10.37,2013-05-14 17:38:00,
2013-05-14 19:43:00,60.2,50.0,29.89,East,98,1.1,3.5,69,0.00,SCT,,0.00,18.0,WeatherDisplay:10.37,2013-05-14 17:43:00,
2013-05-14 19:48:00,60.1,49.9,29.89,East,96,2.0,3.5,69,0.00,SCT,,0.00,14.0,WeatherDisplay:10.37,2013-05-14 17:48:00,
2013-05-14 19:53:00,60.0,50.2,29.89,East,101,0.8,3.5,70,0.00,SCT,,0.00,12.0,WeatherDisplay:10.37,2013-05-14 17:53:00,
2013-05-14 19:58:00,59.9,50.1,29.89,East,80,1.5,3.5,70,0.00,SCT,,0.00,11.0,WeatherDisplay:10.37,2013-05-14 17:58:00,
2013-05-14 20:03:00,59.7,49.9,29.89,East,79,0.2,1.2,70,0.00,SCT,,0.00,9.0,WeatherDisplay:10.37,2013-05-14 18:03:00,
2013-05-14 20:08:00,59.6,49.8,29.89,East,84,0.2,3.5,70,0.00,SCT,,0.00,5.0,WeatherDisplay:10.37,2013-05-14 18:08:00,
2013-05-14 20:13:00,59.5,49.7,29.89,East,87,0.1,2.3,70,0.00,SCT,,0.00,0.0,WeatherDisplay:10.37,2013-05-14 18:13:00,
2013-05-14 20:18:00,59.4,50.0,29.89,East,87,0.0,0.0,71,0.00,SCT,,0.00,0.0,WeatherDisplay:10.37,2013-05-14 18:18:00,
2013-05-14 20:23:00,59.3,49.9,29.89,East,87,0.0,0.0,71,0.00,SCT,,0.00,0.0,WeatherDisplay:10.37,2013-05-14 18:23:00,
2013-05-14 20:28:00,59.2,49.8,29.89,East,87,0.0,0.0,71,0.00,SCT,,0.00,0.0,WeatherDisplay:10.37,2013-05-14 18:28:00,
2013-05-14 20:33:00,59.1,50.1,29.89,East,87,0.0,0.0,72,0.00,SCT,,0.00,0.0,WeatherDisplay:10.37,2013-05-14 18:33:00,
2013-05-14 20:38:00,59.0,50.0,29.89,East,87,0.0,0.0,72,0.00,SCT,,0.00,0.0,WeatherDisplay:10.37,2013-05-14 18:38:00,
2013-05-14 20:43:00,58.8,50.2,29.89,East,87,0.5,2.3,73,0.00,SCT,,0.00,0.0,WeatherDisplay:10.37,2013-05-14 18:43:00,
2013-05-14 20:48:00,58.7,50.1,29.89,East,87,0.0,1.0,73,0.00,SCT,,0.00,0.0,WeatherDisplay:10.37,2013-05-14 18:48:00,
2013-05-14 20:53:00,58.6,50.0,29.89,ESE,105,0.0,1.2,73,0.00,SCT,,0.00,0.0,WeatherDisplay:10.37,2013-05-14 18:53:00,
2013-05-14 20:58:00,58.5,49.9,29.90,ESE,104,0.0,0.0,73,0.00,SCT,,0.00,0.0,WeatherDisplay:10.37,2013-05-14 18:58:00,
2013-05-14 21:03:00,58.4,50.1,29.90,ESE,105,0.0,0.0,74,0.00,SCT,,0.00,0.0,WeatherDisplay:10.37,2013-05-14 19:03:00,
2013-05-14 21:08:00,58.3,50.0,29.90,ESE,104,0.0,0.0,74,0.00,SCT,,0.00,0.0,WeatherDisplay:10.37,2013-05-14 19:08:00,
2013-05-14 21:13:00,58.2,50.3,29.90,ESE,104,0.0,0.0,75,0.00,SCT,,0.00,0.0,WeatherDisplay:10.37,2013-05-14 19:13:00,
2013-05-14 21:18:00,58.1,50.2,29.90,ESE,104,0.0,0.0,75,0.00,SCT,,0.00,0.0,WeatherDisplay:10.37,2013-05-14 19:18:00,
2013-05-14 21:23:00,57.9,50.0,29.90,ESE,105,0.0,0.0,75,0.00,SCT,,0.00,0.0,WeatherDisplay:10.37,2013-05-14 19:23:00,
2013-05-14 21:28:00,57.7,50.2,29.90,ESE,105,0.0,0.0,76,0.00,SCT,,0.00,0.0,WeatherDisplay:10.37,2013-05-14 19:28:00,
2013-05-14 21:33:00,57.6,50.1,29.90,ESE,105,0.0,0.0,76,0.00,SCT,,0.00,0.0,WeatherDisplay:10.37,2013-05-14 19:33:00,
2013-05-14 21:38:00,57.5,50.0,29.90,ESE,105,0.0,0.0,76,0.00,SCT,,0.00,0.0,WeatherDisplay:10.37,2013-05-14 19:38:00,
2013-05-14 21:43:00,57.4,50.2,29.90,ESE,105,0.0,0.0,77,0.00,SCT,,0.00,0.0,WeatherDisplay:10.37,2013-05-14 19:43:00,
2013-05-14 21:48:00,57.4,50.2,29.90,ESE,105,0.0,0.0,77,0.00,SCT,,0.00,0.0,WeatherDisplay:10.37,2013-05-14 19:48:00,
2013-05-14 21:53:00,57.3,50.1,29.90,ESE,105,0.0,0.0,77,0.00,SCT,,0.00,0.0,WeatherDisplay:10.37,2013-05-14 19:53:00,
2013-05-14 21:58:00,57.2,50.1,29.90,ESE,104,0.0,0.0,77,0.00,SCT,,0.00,0.0,WeatherDisplay:10.37,2013-05-14 19:58:00,
2013-05-14 22:03:00,57.1,50.0,29.90,ESE,105,0.0,0.0,77,0.00,SCT,,0.00,0.0,WeatherDisplay:10.37,2013-05-14 20:03:00,
2013-05-14 22:08:00,57.0,50.2,29.90,ESE,105,0.0,0.0,78,0.00,SCT,,0.00,0.0,WeatherDisplay:10.37,2013-05-14 20:08:00,
2013-05-14 22:13:00,56.8,50.0,29.90,ESE,105,0.0,0.0,78,0.00,SCT,,0.00,0.0,WeatherDisplay:10.37,2013-05-14 20:13:00,
2013-05-14 22:18:00,56.7,49.9,29.90,ESE,105,0.0,0.0,78,0.00,SCT,,0.00,0.0,WeatherDisplay:10.37,2013-05-14 20:18:00,
2013-05-14 22:23:00,56.5,49.7,29.90,ESE,105,0.0,0.0,78,0.00,SCT,,0.00,0.0,WeatherDisplay:10.37,2013-05-14 20:23:00,
2013-05-14 22:28:00,56.4,50.0,29.90,ESE,105,0.0,0.0,79,0.00,SCT,,0.00,0.0,WeatherDisplay:10.37,2013-05-14 20:28:00,
2013-05-14 22:33:00,56.2,49.8,29.90,ESE,104,0.0,0.0,79,0.00,SCT,,0.00,0.0,WeatherDisplay:10.37,2013-05-14 20:33:00,
2013-05-14 22:38:00,56.0,49.6,29.90,ESE,104,0.0,0.0,79,0.00,SCT,,0.00,0.0,WeatherDisplay:10.37,2013-05-14 20:38:00,
2013-05-14 22:43:00,55.8,49.7,29.90,ESE,105,0.0,0.0,80,0.00,SCT,,0.00,0.0,WeatherDisplay:10.37,2013-05-14 20:43:00,
2013-05-14 22:48:00,55.6,49.5,29.89,ESE,105,0.0,0.0,80,0.00,SCT,,0.00,0.0,WeatherDisplay:10.37,2013-05-14 20:48:00,
2013-05-14 22:53:00,55.5,49.8,29.89,ESE,105,0.0,0.0,81,0.00,SCT,,0.00,0.0,WeatherDisplay:10.37,2013-05-14 20:53:00,
2013-05-14 22:58:00,55.4,49.7,29.89,ESE,105,0.0,0.0,81,0.00,SCT,,0.00,0.0,WeatherDisplay:10.37,2013-05-14 20:58:00,
2013-05-14 23:03:00,55.2,49.5,29.89,ESE,104,0.0,0.0,81,0.00,SCT,,0.00,0.0,WeatherDisplay:10.37,2013-05-14 21:03:00,
2013-05-14 23:08:00,55.1,49.4,29.89,ESE,105,0.0,0.0,81,0.00,SCT,,0.00,0.0,WeatherDisplay:10.37,2013-05-14 21:08:00,
2013-05-14 23:13:00,55.0,49.6,29.89,ESE,105,0.0,0.0,82,0.00,SCT,,0.00,0.0,WeatherDisplay:10.37,2013-05-14 21:13:00,
2013-05-14 23:18:00,54.8,49.4,29.89,ESE,105,0.0,0.0,82,0.00,SCT,,0.00,0.0,WeatherDisplay:10.37,2013-05-14 21:18:00,
2013-05-14 23:23:00,54.7,49.3,29.90,ESE,104,0.0,0.0,82,0.00,SCT,,0.00,0.0,WeatherDisplay:10.37,2013-05-14 21:23:00,
2013-05-14 23:28:00,54.6,49.5,29.89,ESE,105,0.0,0.0,83,0.00,SCT,,0.00,0.0,WeatherDisplay:10.37,2013-05-14 21:28:00,
2013-05-14 23:33:00,54.5,49.4,29.89,ESE,105,0.0,0.0,83,0.00,SCT,,0.00,0.0,WeatherDisplay:10.37,2013-05-14 21:33:00,
2013-05-14 23:38:00,54.4,49.3,29.89,ESE,104,0.0,0.0,83,0.00,SCT,,0.00,0.0,WeatherDisplay:10.37,2013-05-14 21:38:00,
2013-05-14 23:43:00,54.3,49.6,29.89,ESE,105,0.0,0.0,84,0.00,SCT,,0.00,0.0,WeatherDisplay:10.37,2013-05-14 21:43:00,
2013-05-14 23:48:00,54.1,49.4,29.89,ESE,105,0.0,0.0,84,0.00,SCT,,0.00,0.0,WeatherDisplay:10.37,2013-05-14 21:48:00,
2013-05-14 23:53:00,53.9,49.2,29.89,ESE,104,0.0,0.0,84,0.00,SCT,,0.00,0.0,WeatherDisplay:10.37,2013-05-14 21:53:00,
2013-05-14 23:58:00,53.7,49.0,29.89,ESE,105,0.0,0.0,84,0.00,SCT,,0.00,0.0,WeatherDisplay:10.37,2013-05-14 21:58:00,